CZ-2D DEB, 44603

Orbit data source: Space-Track

CZ-2D DEB, 44603 is space debris in SSO originally from a launch on Fri, 11 Nov 2016 UTC launched from the Jiuquan Satellite Launch Center, China (JSC). Debris objects in space refer to the collection of defunct objects orbiting the Earth. Examples of debris include non-operational satellites, rocket bodies, and fragments generated from explosions, collisions, or faulty payload assembly.

Loading next visibility...
Identifier
44603, 2016-068C
Orbit
SSO
Last TLE update
1 day ago
Origin
Manufacturer
Unknown
Mission
Spacecraft
Bus & Motor
Unknown
Mass
Unknown
Launch date (UTC)
2016-11-11 (8 years ago)
Launch vehicle
Unknown
Launch site
Jiuquan Satellite Launch Center, China (JSC)
Object type
Payload
Rocket body
Debris
Shape & HBR
Unknown
Radar Cross Section
Small (<0.1 m²)

Expand to show TLE details & history

TLE from 1 day ago
0 CZ-2D DEB
1 44603U 16068C   25128.27990493  .00000594  00000-0  39871-3 0  9998
2 44603  98.5381 316.1615 0214375 279.0537  78.6424 13.93772112917713
Epoch: 2025-05-08T06:43Z
Definitive object data (Epoch: 2025-05-08T06:43:03.785Z)
Latitude
-0.00002°
Longitude
-10.95694°
Altitude
890.771 km
Speed
7.421 km/s
True Right ascension
21h 04m 38s
True Declination
0° 00' 00"
Sunlit
Object was in daylight at TLE epoch
Visualization TLE readout
Latitude
-62.03494°
Longitude
6.29646°
Altitude
792.475 km
Speed
7.531 km/s
Apparent Right ascension
00h 55m 25s
Apparent Declination
-56° 12' 11"
Sunlit
Object is in daylight
Visualization observer readout
Local Sidereal Time
14:41:27
Azimuth
142.018° SSE
Elevation
-66.209°
Doppler factor
1
Orbital elements
Apogee altitude
1,068.921 km
Perigee altitude
756.33 km
Semi-major axis
7,290.762 km
Eccentricity
0.0214375
Inclination
98.5381°
RAAN
316.1615°
Arg. of periapsis
279.0537°
True anomaly
81.0629°
Mean anomaly
78.6424°
Eccentric anomaly
79.85146°
Mean motion
3.48645 °/min
BSTAR
0.00039871
Orbital period
103.26 mins
Loading maneuver chart data...
Loading SW <> Apogee altitude chart data...
Loading historical data...
Loading historical data...
Loading historical data...
Loading historical data...
Loading historical data...
Loading historical data...
Loading historical data...

CZ-2D DEB Visibility forecast

Observer location: undefined°, undefined°

Span
Click to sort rows by Start time (UTC) header in descending order
Start Az.
Max El. time (UTC)
Max El. Az.
Max El.
End time (UTC)
End Az.
11 mins2025-05-09 12:07:36.304Z150.827° SSE2025-05-09 12:12:36.304Z60.629° ENE42.33°2025-05-09 12:18:36.304Z352.618° N
6 mins2025-05-09 13:52:36.304Z242.736° WSW2025-05-09 13:54:36.304Z265.937° W18.071°2025-05-09 13:58:36.304Z308.737° NW
10 mins2025-05-10 00:40:36.304Z30.916° NE2025-05-10 00:45:36.304Z94.52° ESE34.004°2025-05-10 00:50:36.304Z163.288° S
9 mins2025-05-10 02:23:36.304Z345.034° N2025-05-10 02:27:36.304Z292.916° NW28.204°2025-05-10 02:32:36.304Z235.879° WSW
|